TimeEDT,TemperatureF,Dew PointF,Humidity,Sea Level PressureIn,VisibilityMPH,Wind Direction,Wind SpeedMPH,Gust SpeedMPH,PrecipitationIn,Events,Conditions,WindDirDegrees,DateUTC
12:03 AM,60.8,60.8,100,30.18,0.8,Calm,Calm,-,N/A,,Mist,0,2013-05-20 04:03:00
12:54 AM,60.1,59.0,96,30.17,0.5,NE,6.9,-,N/A,Fog,Fog,40,2013-05-20 04:54:00
1:54 AM,59.0,57.9,96,30.14,0.5,NE,5.8,-,N/A,Fog,Fog,50,2013-05-20 05:54:00
2:54 AM,59.0,57.9,96,30.12,0.5,NE,3.5,-,N/A,Fog,Fog,50,2013-05-20 06:54:00
3:54 AM,59.0,57.9,96,30.11,0.2,Calm,Calm,-,N/A,Fog,Fog,0,2013-05-20 07:54:00
4:54 AM,59.0,57.9,96,30.11,0.2,Calm,Calm,-,N/A,Fog,Fog,0,2013-05-20 08:54:00
5:54 AM,59.0,57.9,96,30.10,0.5,Calm,Calm,-,N/A,Fog,Fog,0,2013-05-20 09:54:00
6:54 AM,59.0,57.9,96,30.11,0.1,Calm,Calm,-,N/A,Fog,Fog,0,2013-05-20 10:54:00
7:16 AM,60.8,59.0,94,30.12,1.0,North,3.5,-,N/A,,Mist,360,2013-05-20 11:16:00
7:54 AM,60.8,60.8,100,30.12,2.0,Calm,Calm,-,N/A,,Overcast,0,2013-05-20 11:54:00
8:14 AM,60.8,60.8,100,30.13,3.0,Calm,Calm,-,N/A,,Overcast,0,2013-05-20 12:14:00
8:54 AM,63.0,61.0,93,30.13,4.0,Calm,Calm,-,N/A,,Overcast,0,2013-05-20 12:54:00
9:54 AM,66.0,63.0,90,30.13,4.0,Calm,Calm,-,N/A,,Overcast,0,2013-05-20 13:54:00
10:29 AM,68.0,64.4,88,30.11,4.0,SW,4.6,-,N/A,,Overcast,220,2013-05-20 14:29:00
10:49 AM,69.8,64.4,83,30.11,5.0,SSW,4.6,-,N/A,,Haze,210,2013-05-20 14:49:00
10:54 AM,70.0,64.9,84,30.12,5.0,SW,4.6,-,N/A,,Haze,230,2013-05-20 14:54:00
11:35 AM,71.6,64.4,78,30.10,5.0,Calm,Calm,-,N/A,,Haze,0,2013-05-20 15:35:00
11:54 AM,71.1,64.0,78,30.09,5.0,Calm,Calm,-,N/A,,Haze,0,2013-05-20 15:54:00
12:54 PM,72.0,64.9,78,30.08,6.0,Calm,Calm,-,N/A,,Haze,0,2013-05-20 16:54:00
1:06 PM,73.4,64.4,73,30.07,7.0,Calm,Calm,-,N/A,,Overcast,0,2013-05-20 17:06:00
1:54 PM,75.9,64.9,69,30.06,10.0,Variable,6.9,-,N/A,,Overcast,0,2013-05-20 17:54:00
2:09 PM,75.2,64.4,69,30.05,10.0,WSW,8.1,-,N/A,,Overcast,240,2013-05-20 18:09:00
2:54 PM,78.1,64.9,64,30.05,10.0,Variable,6.9,-,N/A,,Mostly Cloudy,0,2013-05-20 18:54:00
3:54 PM,78.1,64.0,62,30.03,10.0,WSW,8.1,-,N/A,,Overcast,250,2013-05-20 19:54:00
4:54 PM,78.1,64.9,64,30.01,10.0,SW,9.2,-,N/A,,Overcast,220,2013-05-20 20:54:00
5:54 PM,79.0,64.0,60,30.00,10.0,SSW,9.2,-,N/A,,Mostly Cloudy,210,2013-05-20 21:54:00
6:54 PM,78.1,64.0,62,30.01,10.0,WSW,8.1,-,N/A,,Clear,240,2013-05-20 22:54:00
7:54 PM,75.0,64.0,69,30.00,10.0,WSW,6.9,-,N/A,,Clear,240,2013-05-20 23:54:00
8:54 PM,73.0,64.0,73,30.01,10.0,WSW,3.5,-,N/A,,Clear,240,2013-05-21 00:54:00
9:54 PM,71.6,64.4,78,30.01,10.0,SW,3.5,-,N/A,,Clear,220,2013-05-21 01:54:00
10:54 PM,66.9,63.0,87,30.01,10.0,Calm,Calm,-,N/A,,Clear,0,2013-05-21 02:54:00
11:54 PM,66.9,63.0,87,30.00,10.0,SW,3.5,-,N/A,,Clear,220,2013-05-21 03:54:00